CZ-4 DEB, 26333

Orbit data source: Space-Track

CZ-4 DEB, 26333 is space debris in SSO originally from a launch on Thu, 14 Oct 1999 UTC launched from the Taiyaun Space Center, China (TSC). Debris objects in space refer to the collection of defunct objects orbiting the Earth. Examples of debris include non-operational satellites, rocket bodies, and fragments generated from explosions, collisions, or faulty payload assembly.

Loading next visibility...
Identifier
26333, 1999-057HS
Orbit
SSO
Country
Flag of CNCN / PRC
Related business
Manufacturer
Unknown
Mission
Spacecraft
Bus & Motor
Unknown
Mass
Unknown
Launch date (UTC)
1999-10-14 (26 years ago)
Launch vehicle
Unknown
Launch site
Taiyaun Space Center, China (TSC)
Object type
Payload
Rocket body
Debris
Shape & HBR
Unknown shape, 0.1 m
Radar Cross Section
Small (<0.1 m²)

Expand to show TLE details & history
Last TLE update: 8 hours ago

TLE from 8 hours ago
0 CZ-4 DEB
1 26333U 99057HS  25291.94089105  .00204579  00000-0  66413-2 0  9991
2 26333  98.1309  10.1078 0015159  67.3512 292.9329 15.30979305359994
Epoch: 2025-10-18T22:34Z
TLE epoch observation values (Epoch: 2025-10-18T22:34:52.986Z)
Latitude
0.00003°
Longitude
3.72233°
Altitude
471.938 km
Speed
7.632 km/s
True Right ascension
00h 40m 25s
True Declination
0° 00' 00"
Sunlit
Object was in full shadow at epoch
Visualization orbit readout
Latitude
Unknown
Longitude
Unknown
Altitude
Unknown
Speed
Unknown
Apparent Right ascension
Unknown
Apparent Declination
Unknown
Sunlit
N/A
Visualization observer readout
Local Sidereal Time
01:16:34
Azimuth
Unknown
Elevation
Unknown
Doppler factor
Unknown
Orbital elements
Apogee altitude
480.254 km
Perigee altitude
459.492 km
Semi-major axis
6,848.01 km
Eccentricity
0.00152
Inclination
98.1309°
RAAN
10.1078°
Arg. of periapsis
67.3512°
True anomaly
292.7728°
Mean anomaly
292.9329°
Eccentric anomaly
292.85286°
Mean motion
3.82998 °/min
Orbital period
94 mins
BSTAR
0.0066413
Loading maneuver chart data...
Computing Atmospheric mass density...

Documentation

Showing up to 5 results
|